Mammoth, USA 16 day weather forecast

Slopes altitude range 2290 m - 3075m

Number of lifts: 28 Pistes: -1km

In some cases the lift and piste totals shown are for the ski domain (e.g. Three Valleys) rather than individual resort (e.g. Courchevel)

Overview

The 16 day weather forecast is fully updated 4 times every day.

    • Wed 26 JUN 2019
    • Wed 26
    • 8C 9C
    • Thu 27 JUN 2019
    • Thu 27
    • 6C 7C
    • Fri 28 JUN 2019
    • Fri 28
    • 6C 8C
    • Sat 29 JUN 2019
    • Sat 29
    • 7C 7C
    • Sun 30 JUN 2019
    • Sun 30
    • 8C 9C
    • Mon 01 JUL 2019
    • Mon 01
    • 7C 9C
    • Tue 02 JUL 2019
    • Tue 02
    • 9C 10C
    • Wed 03 JUL 2019
    • Wed 03
    • 9C 10C
    • Thu 04 JUL 2019
    • Thu 04
    • 14C 17C
    • Fri 05 JUL 2019
    • Fri 05
    • 12C 15C
    • Sat 06 JUL 2019
    • Sat 06
    • 15C 20C
    • Sun 07 JUL 2019
    • Sun 07
    • 17C 20C
    • Mon 08 JUL 2019
    • Mon 08
    • 15C 19C
    • Tue 09 JUL 2019
    • Tue 09
    • 13C 17C
    • Wed 10 JUL 2019
    • Wed 10
    • 14C 17C
    • Thu 11 JUL 2019
    • Thu 11
    • 15C 18C

Date:

Time Type 0°C level Temp Chill Snow Cloud Speed Gust Dir Press
3:00 4195m 11°C 11_2 0cm 0% 2mph 3mph 1009mB
6:00 4158m 9°C 9_5 0cm 0% 5mph 6mph 1011mB
9:00 4015m 9°C 9_5 0cm 2% 5mph 5mph 1012mB
12:00 3953m 9°C 9_4 0cm 1% 4mph 5mph 1012mB
15:00 3874m 14°C 14_5 0cm 0% 5mph 7mph 1012mB
18:00 3797m 17°C 17_9 0cm 0% 9mph 11mph 1012mB
21:00 3815m 17°C 17_11 0cm 0% 11mph 13mph 1011mB
0:00 3786m 16°C 16_9 0cm 6% 9mph 11mph 1011mB
3:00 3960m 10°C 10_3 0cm 12% 3mph 4mph 1012mB
6:00 3925m 7°C 7_4 0cm 6% 4mph 5mph 1015mB
9:00 3823m 7°C 7_4 0cm 33% 4mph 5mph 1015mB
12:00 3825m 7°C 7_4 0cm 17% 4mph 5mph 1016mB
15:00 3872m 12°C 12_5 0cm 33% 5mph 7mph 1016mB
18:00 3953m 16°C 16_8 0cm 24% 8mph 10mph 1015mB
21:00 3901m 16°C 16_10 0cm 16% 10mph 11mph 1014mB
0:00 3922m 16°C 16_8 0cm 48% 8mph 8mph 1013mB
3:00 4033m 9°C 9_2 0cm 21% 2mph 3mph 1014mB
6:00 3921m 7°C 7_6 0cm 15% 6mph 6mph 1016mB
9:00 4023m 7°C 7_4 0cm 28% 4mph 5mph 1016mB
12:00 3818m 8°C 8_3 0cm 62% 3mph 3mph 1016mB
15:00 3575m 12°C 12_3 0cm 42% 3mph 4mph 1016mB
18:00 3631m 16°C 16_7 0cm 33% 7mph 11mph 1016mB
21:00 3859m 13°C 13_6 0cm 100% 6mph 5mph 1015mB
0:00 3620m 12°C 12_8 0cm 100% 8mph 10mph 1013mB
3:00 3975m 9°C 9_2 0cm 68% 2mph 3mph 1015mB
6:00 4123m 7°C 7_6 0cm 58% 6mph 6mph 1017mB
9:00 4090m 7°C 7_5 0cm 45% 5mph 6mph 1017mB
12:00 4124m 7°C 7_5 0cm 71% 5mph 6mph 1017mB
15:00 4157m 13°C 13_3 0cm 99% 3mph 4mph 1017mB
18:00 4146m 18°C 18_7 0cm 99% 7mph 8mph 1016mB
21:00 4114m 18°C 18_9 0cm 100% 9mph 9mph 1014mB
0:00 4127m 18°C 18_7 0cm 100% 7mph 7mph 1012mB
3:00 4204m 11°C 11_2 0cm 56% 2mph 3mph 1013mB
6:00 4231m 8°C 8_5 0cm 28% 5mph 6mph 1015mB
9:00 4082m 8°C 8_5 0cm 0% 5mph 6mph 1015mB
12:00 3928m 9°C 9_5 0cm 0% 5mph 6mph 1015mB
15:00 3874m 15°C 15_3 0cm 0% 3mph 3mph 1016mB
18:00 3880m 18°C 18_8 0cm 0% 8mph 8mph 1015mB
21:00 4009m 18°C 18_9 0cm 0% 9mph 10mph 1013mB
0:00 4024m 18°C 18_8 0cm 0% 8mph 8mph 1012mB
3:00 4167m 11°C 11_3 0cm 0% 3mph 4mph 1013mB
6:00 4155m 8°C 8_5 0cm 0% 5mph 6mph 1016mB
9:00 4287m 8°C 8_5 0cm 0% 5mph 5mph 1016mB
12:00 4281m 9°C 9_6 0cm 0% 6mph 6mph 1017mB
15:00 4315m 15°C 15_1 0cm 0% 1mph 1mph 1016mB
18:00 4363m 19°C 19_7 0cm 0% 7mph 5mph 1015mB
21:00 4334m 19°C 19_9 0cm 0% 9mph 8mph 1013mB
0:00 4422m 19°C 19_7 0cm 0% 7mph 6mph 1012mB
3:00 4520m 11°C 11_2 0cm 0% 2mph 3mph 1012mB
6:00 4543m 9°C 9_6 0cm 0% 6mph 6mph 1014mB
9:00 4473m 9°C 9_5 0cm 0% 5mph 6mph 1014mB
12:00 4495m 10°C 10_5 0cm 0% 5mph 6mph 1014mB
15:00 4530m 16°C 16_3 0cm 0% 3mph 2mph 1014mB
18:00 4464m 20°C 20_7 0cm 0% 7mph 5mph 1012mB
21:00 4464m 21°C 21_9 0cm 0% 9mph 7mph 1010mB
0:00 4543m 20°C 20_7 0cm 0% 7mph 5mph 1008mB
3:00 4590m 12°C 12_3 0cm 0% 3mph 3mph 1008mB
6:00 4625m 10°C 10_5 0cm 0% 5mph 6mph 1010mB
9:00 4526m 9°C 9_5 0cm 0% 5mph 6mph 1009mB
12:00 4429m 10°C 10_5 0cm 0% 5mph 6mph 1009mB
15:00 4294m 16°C 16_3 0cm 0% 3mph 3mph 1009mB
18:00 4127m 19°C 19_4 0cm 0% 4mph 5mph 1008mB
21:00 4334m 20°C 20_6 0cm 0% 6mph 10mph 1007mB
0:00 4472m 20°C 20_9 0cm 26% 9mph 8mph 1005mB
3:00 4120m 20°C 20_9 0cm 94% 9mph 13mph 1007mB
6:00 4198m 17°C 17_6 0cm 64% 6mph 6mph 1010mB
9:00 4199m 15°C 15_4 0cm 0% 4mph 5mph 1010mB
12:00 4161m 17°C 17_3 0cm 15% 3mph 4mph 1010mB
15:00 4147m 17°C 17_3 0cm 25% 3mph 4mph 1011mB
18:00 4106m 20°C 20_4 0cm 13% 4mph 6mph 1011mB
21:00 4308m 20°C 20_9 0cm 45% 9mph 13mph 1010mB
0:00 4299m 19°C 19_17 0cm 45% 17mph 17mph 1011mB
3:00 4354m 18°C 18_10 0cm 0% 10mph 13mph 1013mB
6:00 4366m 15°C 15_6 0cm 0% 6mph 8mph 1015mB
9:00 4299m 14°C 14_3 0cm 0% 3mph 4mph 1015mB
12:00 4446m 15°C 15_1 0cm 5% 1mph 2mph 1015mB
15:00 4451m 15°C 15_2 0cm 5% 2mph 2mph 1016mB
18:00 4462m 19°C 19_4 0cm 10% 4mph 3mph 1015mB
21:00 4361m 19°C 19_8 0cm 0% 8mph 9mph 1013mB
0:00 4495m 19°C 19_1 0cm 27% 1mph 3mph 1012mB
Afternoon 0mm 0 4495m 20°C 20_2 0cm 0% 2mph 3mph 1015mB
Morning 0.0208333mm 0.0625 4798m 23°C 23_6 0cm 2% 6mph 7mph 1011mB
Afternoon 0mm 0 4684m 20°C 20_1 0cm 0% 1mph 2mph 1013mB
Morning 0mm 0 4752m 25°C 25_13 0cm 31% 13mph 9mph 1008mB
Afternoon 0mm 0 4657m 19°C 19_3 0cm 0% 3mph 4mph 1013mB
Morning 0mm 0 4748m 25°C 25_13 0cm 0% 13mph 15mph 1009mB
Afternoon 0mm 0 4675m 17°C 17_4 0cm 49% 4mph 5mph 1014mB
Morning 0mm 0 4743m 23°C 23_15 0cm 0% 15mph 15mph 1011mB
Afternoon 0mm 0 4699m 17°C 17_2 0cm 0% 2mph 3mph 1015mB
Morning 0mm 0 4763m 22°C 22_13 0cm 0% 13mph 13mph 1011mB
Afternoon 0mm 0 4688m 18°C 18_1 0cm 23% 1mph 2mph 1016mB
Morning 0mm 0 4839m 24°C 24_13 0cm 0% 13mph 13mph 1013mB

16 day outlook at a glance

Forecast issued: 6/26/2019 7:49:12 AM

Chat

Your comments and questions. In a resort? Let us know what it's like!


Characters left 250

For terms and conditions see Readers Comments on the Cookie and privacy policy page.